Location: Unspecified
(51.6244°N, 7.4094°E)
Time: 21:54:52
(UTC+02:00)

ISS - Visible Passes

Search period start: 16 May 2021 00:00
Search period end: 26 May 2021 00:00
Orbit: 417 x 422 km, 51.6° (Epoch: 16 May)

Date Brightness Start Highest point End Pass type
(mag) Time Alt. Az. Time Alt. Az. Time Alt. Az.
16 May -3.8 01:16:31 10° W 01:19:54 87° N 01:23:18 10° E visible
16 May -3.8 02:53:20 10° W 02:56:40 58° SSW 03:00:00 10° ESE visible
16 May -2.2 04:30:42 10° W 04:33:01 17° SW 04:35:18 10° S visible
16 May -3.4 22:52:33 10° SW 22:55:45 41° SSE 22:58:58 10° E visible
17 May -3.9 00:29:03 10° W 00:32:26 90° S 00:35:50 10° E visible
17 May -3.9 02:05:53 10° W 02:09:15 72° SSW 02:12:37 10° ESE visible
17 May -2.7 03:42:56 10° W 03:45:44 24° SSW 03:48:31 10° SSE visible
17 May -2.9 22:05:24 10° SSW 22:08:24 30° SSE 22:11:25 10° E visible
17 May -3.9 23:41:36 10° WSW 23:44:58 81° S 23:48:22 10° E visible
18 May -3.9 01:18:25 10° W 01:21:48 84° S 01:22:53 41° ESE visible
18 May -1.4 02:55:20 10° W 02:55:46 13° W 02:55:46 13° W visible
18 May -3.8 22:54:11 10° WSW 22:57:32 69° SSE 23:00:54 10° E visible
19 May -3.8 00:30:57 10° W 00:34:20 89° NNW 00:36:27 21° E visible
19 May -2.2 02:07:48 10° W 02:09:22 24° W 02:09:22 24° W visible
19 May -3.6 22:06:49 10° WSW 22:10:06 55° SSE 22:13:25 10° E visible
19 May -3.8 23:43:29 10° W 23:46:52 87° N 23:50:15 10° E visible
20 May -3.5 01:20:19 10° W 01:23:12 52° SW 01:23:12 52° SW visible
20 May -3.8 22:56:00 10° W 22:59:23 90° S 23:02:47 10° E visible
21 May -3.9 00:32:51 10° W 00:36:13 72° SSW 00:37:06 44° SE visible
21 May -1.1 02:09:54 10° W 02:10:02 11° W 02:10:02 11° W visible
21 May -3.8 22:08:32 10° WSW 22:11:55 81° SSE 22:15:18 10° E visible
21 May -3.9 23:45:22 10° W 23:48:44 84° SSW 23:51:03 19° ESE visible
22 May -2.2 01:22:16 10° W 01:23:59 23° WSW 01:23:59 23° WSW visible
22 May -3.8 22:57:53 10° W 23:01:16 89° N 23:04:39 10° E visible
23 May -3.4 00:34:43 10° W 00:37:58 44° SSW 00:37:58 44° SSW visible
23 May -3.7 22:10:23 10° W 22:13:47 87° N 22:17:09 10° E visible
23 May -3.7 23:47:13 10° W 23:50:33 58° SSW 23:51:59 30° SE visible
24 May -1.2 01:24:36 10° W 01:24:55 11° WSW 01:24:55 11° WSW visible
24 May -3.8 22:59:44 10° W 23:03:06 72° SSW 23:06:01 13° ESE visible
25 May -2.2 00:36:48 10° W 00:38:57 22° SW 00:38:57 22° SW visible
25 May -3.8 22:12:15 10° W 22:15:38 83° S 22:19:00 10° ESE visible
25 May -2.9 23:49:09 10° W 23:52:13 32° SSW 23:53:00 28° S visible
